This demonstration page uses our WeatherBlox Daily Observations layout. Learn more.

Left ArrowRight Arrow

53.62937, 11.41316

Hourly Observations for August 10, 2022

Temp ( °F °C ) Dew Point ( °F °C ) Humidity (%) Winds ( mph kmh ) Pressure ( in mb ) Visibility ( mi km ) Precip ( " mm )
12:20 am 00:20 Clear 55 13 54 12 94 94 VRB 1 2 30.38 1029 6 10 0.00 0.00
12:50 am 00:50 Clear 55 13 52 11 88 88 Calm 30.38 1029 6 10 0.00 0.00
1:20 am 01:20 Mostly Clear 54 12 52 11 94 94 WSW 1 2 30.38 1029 6 10 0.00 0.00
1:50 am 01:50 Mostly Clear 54 12 54 12 100 100 SSE 1 2 30.38 1029 6 10 0.00 0.00
2:20 am 02:20 Mostly Clear 54 12 52 11 94 94 Calm 30.38 1029 6 10 0.00 0.00
2:50 am 02:50 Mostly Clear 52 11 52 11 100 100 VRB 1 2 30.38 1029 6 10 0.00 0.00
3:20 am 03:20 Clear 52 11 50 10 94 94 VRB 1 2 30.36 1028 6 10 0.00 0.00
3:50 am 03:50 Mostly Clear 52 11 50 10 94 94 Calm 30.36 1028 6 10 0.00 0.00
4:20 am 04:20 Mostly Clear 52 11 50 10 94 94 Calm 30.36 1028 1 1 0.00 0.00
4:50 am 04:50 Mostly Clear 50 10 50 10 100 100 Calm 30.36 1028 3 5 0.00 0.00
5:20 am 05:20 Mostly Clear 50 10 50 10 100 100 Calm 30.36 1028 2 4 0.00 0.00
5:50 am 05:50 Sunny 50 10 50 10 100 100 Calm 30.38 1029 6 9 0.00 0.00
6:20 am 06:20 Mostly Sunny 52 11 50 10 94 94 Calm 30.38 1029 6 10 0.00 0.00
6:50 am 06:50 Mostly Sunny 54 12 54 12 100 100 Calm 30.38 1029 6 10 0.00 0.00
7:20 am 07:20 Mostly Sunny 55 13 55 13 100 100 Calm 30.38 1029 6 10 0.00 0.00
7:50 am 07:50 Mostly Sunny 61 16 57 14 88 88 Calm 30.38 1029 6 10 0.00 0.00
8:20 am 08:20 Mostly Sunny 64 18 59 15 83 83 VRB 1 2 30.35 1028 6 10 0.00 0.00
8:50 am 08:50 Mostly Sunny 64 18 57 14 77 77 E 3 6 30.35 1028 6 10 0.00 0.00
9:20 am 09:20 Mostly Sunny 68 20 57 14 68 68 E 5 7 30.38 1029 6 10 0.00 0.00
9:50 am 09:50 Mostly Sunny 70 21 57 14 64 64 VRB 2 4 30.38 1029 6 10 0.00 0.00
10:20 am 10:20 Mostly Sunny 70 21 55 13 60 60 E 3 6 30.38 1029 6 10 0.00 0.00
10:50 am 10:50 Mostly Sunny 73 23 55 13 53 53 VRB 3 6 30.38 1029 6 10 0.00 0.00
11:20 am 11:20 Mostly Sunny 73 23 54 12 50 50 VRB 3 6 30.35 1028 6 10 0.00 0.00
11:50 am 11:50 Mostly Sunny 73 23 54 12 50 50 VRB 5 7 30.35 1028 6 10 0.00 0.00
12:20 pm 12:20 Mostly Sunny 75 24 54 12 47 47 VRB 3 6 30.35 1028 6 10 0.00 0.00
12:50 pm 12:50 Mostly Sunny 75 24 54 12 47 47 VRB 3 6 30.35 1028 6 10 0.00 0.00
1:20 pm 13:20 Mostly Sunny 75 24 52 11 44 44 ENE 6 9 30.35 1028 6 10 0.00 0.00
1:50 pm 13:50 Mostly Sunny 75 24 52 11 44 44 VRB 3 6 30.32 1027 6 10 0.00 0.00
2:20 pm 14:20 Mostly Sunny 77 25 52 11 41 41 VRB 3 6 30.32 1027 6 10 0.00 0.00
2:50 pm 14:50 Mostly Sunny 79 26 54 12 42 42 VRB 5 7 30.32 1027 6 10 0.00 0.00
3:20 pm 15:20 Mostly Sunny 79 26 54 12 42 42 N 6 9 30.32 1027 6 10 0.00 0.00
3:50 pm 15:50 Mostly Sunny 79 26 54 12 42 42 N 9 15 30.32 1027 6 10 0.00 0.00
4:20 pm 16:20 Mostly Sunny 79 26 54 12 42 42 N 9 15 30.29 1026 6 10 0.00 0.00
4:50 pm 16:50 Mostly Sunny 77 25 54 12 44 44 NE 10 17 30.29 1026 6 10 0.00 0.00
5:20 pm 17:20 Mostly Sunny 77 25 54 12 44 44 NE 9 15 30.29 1026 6 10 0.00 0.00
5:50 pm 17:50 Mostly Sunny 77 25 55 13 47 47 NE 9 15 30.29 1026 6 10 0.00 0.00
6:20 pm 18:20 Mostly Sunny 77 25 55 13 47 47 ENE 10 17 30.29 1026 6 10 0.00 0.00
6:50 pm 18:50 Mostly Sunny 75 24 55 13 50 50 ENE 9 15 30.29 1026 6 10 0.00 0.00
7:20 pm 19:20 Mostly Sunny 75 24 55 13 50 50 ENE 9 15 30.26 1025 6 10 0.00 0.00
7:50 pm 19:50 Mostly Sunny 73 23 55 13 53 53 E 9 15 30.26 1025 6 10 0.00 0.00
8:20 pm 20:20 Mostly Sunny 72 22 55 13 57 57 ENE 8 13 30.26 1025 6 10 0.00 0.00
8:50 pm 20:50 Mostly Sunny 68 20 55 13 64 64 ENE 6 9 30.29 1026 6 10 0.00 0.00
9:20 pm 21:20 Clear 66 19 55 13 68 68 ENE 6 9 30.29 1026 6 10 0.00 0.00
9:50 pm 21:50 Clear 64 18 55 13 73 73 ENE 5 7 30.29 1026 6 10 0.00 0.00
10:20 pm 22:20 Clear 64 18 55 13 73 73 E 2 4 30.29 1026 6 10 0.00 0.00
10:50 pm 22:50 Clear 63 17 55 13 77 77 VRB 1 2 30.29 1026 6 10 0.00 0.00
11:20 pm 23:20 Clear 61 16 55 13 82 82 Calm 30.30 1026 6 10 0.00 0.00
11:50 pm 23:50 Clear 61 16 55 13 82 82 Calm 30.30 1026 6 10 0.00 0.00

Powered by AerisWeather